Station TOKW1 - 9440910 - Toke Point, WA Image indicating link to RSS feed of recent meteorological observations for station TOKW1


Conditions at TOKW1 as of
(3:00 pm PDT)
2200 GMT on 05/22/2024:
     

Click on the graph icon in the table below to see a time series plot of the last five days of that observation.

5-day plot - Atmospheric Pressure Atmospheric Pressure (PRES):30.06 in
5-day plot - Pressure Tendency Pressure Tendency (PTDY):+0.05 in ( Rising )
5-day plot - Air Temperature Air Temperature (ATMP): 54.3 °F
5-day plot - Water Temperature Water Temperature (WTMP): 55.0 °F
5-day plot - Wind Speed at 10 Meters Wind Speed at 10 meters (WSPD10M): 15.5 kts
5-day plot - Wind Speed at 20 Meters Wind Speed at 20 meters (WSPD20M): 15.5 kts
NOS Water Level Observation Network Water Level
Previous observations
TIME
(PDT)
5-day plot - Wind Direction
WDIR
 
5-day plot - Wind Speed
WSPD
kts
5-day plot - Wind Gust
GST
kts
5-day plot - Wave Height
WVHT
ft
5-day plot - Dominant Wave Period
DPD
sec
5-day plot - Average Wave Period
APD
sec
5-day plot - Mean Wave Direction
MWD
 
5-day plot - Atmospheric Pressure
PRES
in
5-day plot - Pressure Tendency
PTDY
in
5-day plot - Air Temperature
ATMP
°F
5-day plot - Water Temperature
WTMP
°F
5-day plot - Dew Point
DEWP
°F
5-day plot - Salinity
SAL
psu
5-day plot - Visibility
VIS
nmi
5-day plot - Tide (above MLLW)
TIDE
ft
2024-05-22 02:54 pm-------30.06- 53.6 54.9----
2024-05-22 02:48 pm W 14.0 20.0----30.06-- 54.9----
2024-05-22 02:42 pm W 14.0 19.0----30.05-- 54.9----
2024-05-22 02:36 pm W 14.0 19.0----30.05-- 54.7----
2024-05-22 02:30 pm W 14.0 19.0----30.05- 54.1 54.7----
2024-05-22 02:24 pmWNW 18.1 21.0----30.05- 53.1 54.5----
2024-05-22 02:18 pm W 15.0 21.0----30.05- 53.8 54.5----
2024-05-22 02:12 pm W 15.0 20.0----30.05- 53.8 54.7----
2024-05-22 02:06 pm W 15.0 20.0----30.04- 53.8 54.7----
2024-05-22 02:00 pm W 14.0 19.0----30.04- 54.1 54.7----
2024-05-22 01:54 pm W 15.9 20.0----30.04- 53.8 54.7----
2024-05-22 01:48 pmWNW 13.0 17.1----30.04- 53.8 54.7----
2024-05-22 01:42 pmWNW 11.1 15.0----30.04- 53.6 54.7----
2024-05-22 01:36 pmWNW 11.1 15.9----30.04- 53.2 54.7----
2024-05-22 01:30 pm NW 13.0 17.1----30.04- 53.1 54.7----
2024-05-22 01:24 pmWNW 12.0 15.0----30.04- 53.2 54.7----
2024-05-22 01:18 pmWNW 13.0 17.1----30.04- 53.1 54.7----
2024-05-22 01:12 pm NW 12.0 19.0----30.03- 53.1 54.9----
2024-05-22 01:06 pmWNW 14.0 21.0----30.03- 52.9 54.9----
2024-05-22 01:00 pmWNW 17.1 21.0----30.03+0.05 52.9 54.9----
2024-05-22 12:54 pmWNW 15.0 19.0----30.03- 52.7 54.9----
2024-05-22 12:48 pmWNW 14.0 18.1----30.03- 52.9 54.9----
2024-05-22 12:42 pmWNW 11.1 20.0----30.03- 53.4 54.9----
2024-05-22 12:36 pmWNW 13.0 18.1----30.02- 53.1 55.0----
2024-05-22 12:30 pmWNW 15.0 18.1----30.02- 52.7 55.0----
2024-05-22 12:24 pmWNW 14.0 20.0----30.02- 53.1 55.0----
2024-05-22 12:18 pmWNW 15.0 19.0----30.01- 52.9 55.0----
2024-05-22 12:12 pm NW 15.9 19.0----30.01- 52.9 55.0----
2024-05-22 12:06 pmWNW 15.9 20.0----30.01- 52.5 54.9----
2024-05-22 12:00 pmWNW 15.9 20.0----30.01+0.02 52.7 54.9----
2024-05-22 11:54 amWNW 12.0 21.0----30.01- 52.9 54.9----
2024-05-22 11:48 am NW 15.9 22.0----30.01- 52.7 54.9----
2024-05-22 11:42 am NW 15.0 20.0----30.01- 52.7 55.0----
2024-05-22 11:36 am NW 17.1 21.0----30.01- 52.5 55.0----
2024-05-22 11:30 amWNW 14.0 17.1----30.01- 52.9 54.9----
2024-05-22 11:24 am NW 15.0 19.0----30.01- 52.5 54.7----
2024-05-22 11:18 am NW 15.9 20.0------- 54.9----
2024-05-22 11:12 am NW 17.1 22.9------- 54.9----
2024-05-22 11:06 am NW 15.0 20.0------- 54.9----
2024-05-22 11:00 am NW 18.1 22.9------- 54.9----
2024-05-22 10:54 am NW 15.0 21.0------- 54.9----
2024-05-22 10:48 am NW 15.9 22.0------- 54.9----
2024-05-22 10:42 am NW 17.1 21.0------- 54.9----
2024-05-22 10:36 am NW 19.0 24.1------- 54.7----
2024-05-22 10:30 am NW 14.0 19.0----29.99-------
2024-05-22 10:24 am NW 15.9 21.0----29.99-------
2024-05-22 10:18 am NW 12.0 21.0------- 54.7----
2024-05-22 10:12 am NW 15.9 22.9------- 54.7----
2024-05-22 10:06 am NW 17.1 24.1------- 54.9----
2024-05-22 10:00 am NW 15.9 21.0----29.98+0.02- 54.7----
2024-05-22 09:54 am NW 13.0 19.0----29.99-- 54.5----
2024-05-22 09:48 am NW 14.0 17.1------- 54.3----
2024-05-22 09:42 am NW 12.0 19.0------- 54.3----
2024-05-22 09:36 amWNW 15.9 21.0------- 54.3----
2024-05-22 09:30 am NW 15.0 18.1------------
2024-05-22 09:24 am NW 15.0 19.0------------
2024-05-22 09:18 am NW 15.0 19.0------ 50.9 54.1----
2024-05-22 09:12 amWNW 11.1 14.0------ 50.5 54.3----
2024-05-22 09:06 am NW 12.0 15.9------ 50.2 54.3----
2024-05-22 09:00 amWNW 13.0 18.1----29.99+0.02 50.0 54.3----
2024-05-22 08:54 amWNW 15.9 22.9----29.98- 49.5 54.1----
2024-05-22 08:48 amWNW 17.1 22.0----29.98- 48.9 54.1----
2024-05-22 08:42 amWNW 22.9 28.0----29.98- 49.6 54.0----
2024-05-22 08:36 amWNW 17.1 22.0----29.98- 51.3 54.1----
2024-05-22 08:30 amWNW 14.0 20.0----29.98- 50.9 54.1----
2024-05-22 08:24 amWNW 12.0 22.9----29.98- 50.5 54.1----
2024-05-22 08:18 amWNW 13.0 21.0----29.98- 50.7 54.1----
2024-05-22 08:12 amWNW 15.0 22.0----29.98- 50.9 54.0----
2024-05-22 08:06 amWNW 20.0 25.1----29.97- 50.9 54.0----
2024-05-22 08:00 amWNW 19.0 27.0----29.97-0.01 50.9 54.0----
2024-05-22 07:54 amWNW 17.1 21.0----29.97- 50.7 54.0----
2024-05-22 07:48 amWNW 14.0 18.1----29.97-- 54.0----
2024-05-22 07:42 am NW 17.1 20.0----29.97-- 54.0----
2024-05-22 07:36 amWNW 20.0 22.9----29.97-- 54.0----
2024-05-22 07:30 amWNW 18.1 24.1------------
2024-05-22 07:24 amWNW 12.0 21.0------------
2024-05-22 07:18 amWNW 15.9 22.0------------
2024-05-22 07:12 amWNW 15.0 20.0------------
2024-05-22 07:06 amWNW 15.9 24.1------------
2024-05-22 07:00 amWNW 14.0 21.0----29.97-0.03 50.7 53.8----
2024-05-22 06:54 amWNW 20.0 22.9----29.96- 50.7 53.8----
2024-05-22 06:48 amWNW 18.1 21.0----29.96-- 53.6----
2024-05-22 06:42 amWNW 15.9 21.0----29.97-- 53.4----
2024-05-22 06:36 amWNW 19.0 24.1----29.96-- 53.4----
2024-05-22 06:30 amWNW 17.1 21.0------------
2024-05-22 06:24 amWNW 20.0 24.1------------
2024-05-22 06:18 amWNW 15.0 20.0----29.97-- 53.8----
2024-05-22 06:12 amWNW 21.0 25.1----29.97-- 53.8----
2024-05-22 06:06 amWNW 17.1 21.0----29.97-- 53.8----
2024-05-22 06:00 amWNW 15.0 19.0----29.97-0.03 50.0 53.8----
2024-05-22 05:54 amWNW 15.9 24.1----29.97- 50.0 53.8----
2024-05-22 05:48 amWNW 17.1 20.0----29.97- 50.0 53.8----
2024-05-22 05:42 amWNW 13.0 19.0----29.97- 48.7 53.8----
2024-05-22 05:36 am NW 15.9 20.0----29.97- 48.7 53.8----
2024-05-22 05:30 amWNW 19.0 25.1----29.98- 49.5 53.8----
2024-05-22 05:24 amWNW 17.1 25.1----29.97- 50.4 53.8----
2024-05-22 05:18 amWNW 15.9 24.1----29.98- 50.4 53.8----
2024-05-22 05:12 amWNW 20.0 28.9----29.98- 50.5 53.8----
2024-05-22 05:06 amWNW 15.9 20.0----29.98- 50.4 53.8----
2024-05-22 05:00 amWNW 15.9 20.0----29.98-0.02 50.5 53.8----
2024-05-22 04:54 amWNW 15.9 20.0----29.98- 50.4 54.0----
2024-05-22 04:48 amWNW 17.1 21.0----29.98- 50.2 54.0----
2024-05-22 04:42 amWNW 15.9 20.0----29.99- 50.4 54.0----
2024-05-22 04:36 amWNW 18.1 22.0----29.99- 50.4 54.0----
2024-05-22 04:30 amWNW 14.0 19.0----29.99- 50.2 54.0----
2024-05-22 04:24 amWNW 14.0 17.1----29.99- 50.0 54.0----
2024-05-22 04:18 amWNW 13.0 19.0----29.99- 49.8 54.0----
2024-05-22 04:12 amWNW 12.0 17.1----29.99- 50.0 54.0----
2024-05-22 04:06 amWNW 14.0 15.9----30.00- 50.4 54.0----
2024-05-22 04:00 amWNW 14.0 17.1----30.00-0.01 50.2 54.0----
2024-05-22 03:54 amWNW 13.0 15.0----30.00- 50.0 54.0----
2024-05-22 03:48 amWNW 12.0 15.9----30.00- 50.2 54.0----
2024-05-22 03:42 amWNW 13.0 20.0----30.00- 50.2 54.0----
2024-05-22 03:36 amWNW 15.0 20.0----30.00- 50.4 54.0----
2024-05-22 03:30 amWNW 15.0 19.0----30.00- 50.5 54.0----
2024-05-22 03:24 amWNW 13.0 19.0----30.00- 50.4 54.0----
2024-05-22 03:18 amWNW 14.0 18.1----30.00- 50.4 54.0----
2024-05-22 03:12 amWNW 17.1 21.0----30.00- 50.5 54.0----
2024-05-22 03:06 amWNW 15.0 21.0----30.00- 50.5 54.1----
2024-05-22 03:00 amWNW 15.0 21.0----30.00-0.02 50.4 54.1----
2024-05-22 02:54 amWNW 14.0 15.9----30.00- 50.4 54.1----
2024-05-22 02:48 amWNW 15.0 18.1----30.01- 50.5 54.1----
2024-05-22 02:42 amWNW 13.0 17.1----30.01- 50.4 54.1----
2024-05-22 02:36 amWNW 15.9 20.0----30.01- 50.5 54.1----
2024-05-22 02:30 amWNW 15.0 18.1----30.01- 50.4 54.1----
2024-05-22 02:24 amWNW 14.0 24.1----30.01- 50.4 54.1----
2024-05-22 02:18 amWNW 15.9 22.9----30.01- 50.5 54.1----
2024-05-22 02:12 amWNW 12.0 22.9----30.01- 50.4 54.1----
2024-05-22 02:06 amWNW 14.0 19.0----30.01- 50.5 54.1----
2024-05-22 02:00 amWNW 15.0 21.0----30.01-0.01 50.5 54.1----
2024-05-22 01:54 amWNW 17.1 24.1----30.01- 50.7 54.1----
2024-05-22 01:48 amWNW 18.1 22.0----30.01- 50.7 54.1----
2024-05-22 01:42 amWNW 13.0 18.1----30.01- 50.5 54.1----
2024-05-22 01:36 amWNW 12.0 18.1----30.01- 50.5 54.1----
2024-05-22 01:30 amWNW 12.0 19.0----30.01- 50.7 54.0----
2024-05-22 01:24 amWNW 9.9 13.0----30.01- 50.7 54.0----
2024-05-22 01:18 amWNW 9.9 13.0----30.01- 50.5 54.0----
2024-05-22 01:12 amWNW 8.9 13.0----30.01- 50.5 54.0----
2024-05-22 01:06 amWNW 11.1 14.0----30.01- 50.7 54.0----
2024-05-22 01:00 amWNW 9.9 13.0----30.01-0.01 50.5 54.0----
2024-05-22 12:54 amWNW 9.9 14.0----30.01- 50.5 54.0----
2024-05-22 12:48 amWNW 11.1 13.0----30.01- 50.5 54.0----
2024-05-22 12:42 amWNW 9.9 13.0----30.01- 50.5 54.1----
2024-05-22 12:36 amWNW 9.9 12.0----30.01- 50.4 54.1----
2024-05-22 12:30 amWNW 11.1 14.0----30.01- 50.5 54.1----
2024-05-22 12:24 amWNW 8.9 13.0----30.01- 50.5 54.0----
2024-05-22 12:18 amWNW 12.0 15.0----30.02- 50.5 54.0----
2024-05-22 12:12 amWNW 11.1 14.0----30.02- 50.4 53.8----
2024-05-22 12:06 am NW 13.0 18.1----30.02- 50.4 53.8----
2024-05-22 12:00 am NW 9.9 15.0----30.02+0.02 50.5 53.8----
2024-05-21 11:54 pm NW 12.0 14.0----30.02- 50.4 53.8----
2024-05-21 11:48 pmWNW 11.1 15.9----30.02- 50.7 54.0----
2024-05-21 11:42 pm NW 13.0 15.9----30.02- 50.7 54.0----
2024-05-21 11:36 pmWNW 14.0 18.1----30.02- 51.1 54.0----
2024-05-21 11:30 pmWNW 12.0 15.0----30.02- 51.1 54.0----
2024-05-21 11:24 pmWNW 13.0 17.1----30.02- 51.1 54.1----
2024-05-21 11:18 pmWNW 13.0 14.0----30.02- 51.1 54.1----
2024-05-21 11:12 pmWNW 9.9 13.0----30.02- 51.1 54.3----
2024-05-21 11:06 pmWNW 9.9 14.0----30.02- 50.7 54.3----
2024-05-21 11:00 pmWNW 8.0 13.0----30.02+0.01 50.7 54.5----
2024-05-21 10:54 pmWNW 9.9 12.0----30.02- 50.7 54.7----
2024-05-21 10:48 pmWNW 9.9 12.0----30.02- 50.7 54.9----
2024-05-21 10:42 pmWNW 9.9 11.1----30.02- 50.9 55.0----
2024-05-21 10:36 pm NW 9.9 14.0----30.02- 51.1 55.0----
2024-05-21 10:30 pm NW 11.1 15.0----30.02- 51.1 55.0----
2024-05-21 10:24 pmWNW 12.0 15.0----30.02- 51.1 55.0----
2024-05-21 10:18 pm NW 12.0 15.0----30.02- 50.9 55.0----
2024-05-21 10:12 pmWNW 14.0 18.1----30.02- 51.3 54.9----
2024-05-21 10:06 pmWNW 14.0 20.0----30.02- 51.3 54.9----
2024-05-21 10:00 pm NW 14.0 17.1----30.02+0.02 51.1 54.9----
2024-05-21 09:54 pm NW 13.0 18.1----30.02- 51.1 55.0----
2024-05-21 09:48 pm NW 15.0 19.0----30.02- 51.1 55.0----
2024-05-21 09:42 pm NW 14.0 20.0----30.01- 51.3 55.0----
2024-05-21 09:36 pm NW 13.0 17.1----30.01- 51.3 55.0----
2024-05-21 09:30 pm NW 14.0 19.0----30.01- 51.3 55.2----
2024-05-21 09:24 pm NW 12.0 20.0----30.01- 51.3 55.2----
2024-05-21 09:18 pm NW 14.0 18.1----30.01- 51.4 55.2----
2024-05-21 09:12 pm NW 15.9 20.0----30.00- 51.3 55.2----
2024-05-21 09:06 pm NW 15.0 21.0----30.01- 51.3 55.2----
2024-05-21 09:00 pm NW 15.9 20.0----30.00-0.01 51.1 55.2----
2024-05-21 08:54 pm NW 14.0 21.0----30.00- 51.6 55.2----
2024-05-21 08:48 pm NW 15.0 19.0----30.00- 51.4 55.2----
2024-05-21 08:42 pmWNW 15.0 17.1----30.00- 51.4 55.2----
2024-05-21 08:36 pmWNW 12.0 14.0----30.00- 51.6 55.2----
2024-05-21 08:30 pm NW 12.0 17.1----30.01- 51.6 55.2----
2024-05-21 08:24 pm NW 11.1 15.0----30.01- 51.4 55.2----
2024-05-21 08:18 pm NW 11.1 15.0----30.01- 51.4 55.2----
2024-05-21 08:12 pmWNW 8.0 13.0----30.01- 51.6 55.0----
2024-05-21 08:06 pmWNW 11.1 13.0----30.01- 51.6 55.0----
2024-05-21 08:00 pm NW 11.1 15.0----30.01-0.02 51.4 55.0----
2024-05-21 07:54 pmWNW 11.1 13.0----30.01- 51.6 55.0----
2024-05-21 07:48 pmWNW 11.1 14.0----30.01- 51.6 55.0----
2024-05-21 07:42 pm W 8.9 12.0----30.01- 51.6 55.0----
2024-05-21 07:36 pmWNW 8.9 12.0----30.01- 51.6 54.9----
2024-05-21 07:30 pmWNW 9.9 13.0----30.01- 51.8 54.9----
2024-05-21 07:24 pm W 9.9 14.0----30.01- 51.6 54.9----
2024-05-21 07:18 pm W 9.9 13.0----30.01- 51.6 54.7----
2024-05-21 07:12 pmWNW 9.9 13.0----30.00- 51.8 54.7----
2024-05-21 07:06 pmWNW 9.9 13.0----30.00- 52.0 54.7----
2024-05-21 07:00 pm W 8.0 13.0----30.00-0.03 52.2 54.7----
2024-05-21 06:54 pmWNW 8.9 12.0----30.00- 52.2 54.7----
2024-05-21 06:48 pm W 8.9 11.1----30.00- 52.2 54.7----
2024-05-21 06:42 pmWNW 8.0 12.0----30.01- 52.2 54.7----
2024-05-21 06:36 pm W 8.9 14.0----30.01- 52.2 54.7----
2024-05-21 06:30 pm W 8.9 12.0----30.01- 52.2 54.7----
2024-05-21 06:24 pm W 8.9 11.1----30.01- 52.2 54.7----
2024-05-21 06:18 pm W 8.0 11.1----30.01- 52.0 54.7----
2024-05-21 06:12 pm W 8.9 12.0----30.01- 52.0 54.7----
2024-05-21 06:06 pm W 8.9 12.0----30.01- 52.0 54.7----
2024-05-21 06:00 pm W 8.0 11.1----30.01-0.04 52.3 54.7----
2024-05-21 05:54 pm W 8.0 11.1----30.02- 52.2 54.5----
2024-05-21 05:48 pm W 7.0 11.1----30.02- 52.2 54.5----
2024-05-21 05:42 pm W 9.9 12.0----30.02- 52.0 54.5----
2024-05-21 05:36 pm W 8.9 12.0----30.02- 52.0 54.7----
2024-05-21 05:30 pm W 8.9 12.0----30.02- 52.0 54.7----
2024-05-21 05:24 pm W 8.9 11.1----30.02- 52.0 54.7----
2024-05-21 05:18 pm W 7.0 9.9----30.02- 52.0 54.7----
2024-05-21 05:12 pm W 8.0 9.9----30.02- 52.0 54.5----
2024-05-21 05:06 pm W 8.0 11.1----30.02- 52.2 54.5----
2024-05-21 05:00 pm W 8.0 12.0----30.02-0.05 52.3 54.5----
2024-05-21 04:54 pm W 8.0 13.0----30.03- 52.2 54.5----
2024-05-21 04:48 pm W 9.9 13.0----30.03- 52.3 54.5----
2024-05-21 04:42 pm W 11.1 15.0----30.03- 52.3 54.5----
2024-05-21 04:36 pm W 14.0 17.1----30.03- 52.3 54.3----
2024-05-21 04:30 pm W 9.9 13.0----30.03- 52.7 54.3----
2024-05-21 04:24 pm W 9.9 13.0----30.03- 52.9 54.3----
2024-05-21 04:18 pmWSW 8.9 12.0----30.03- 53.1 54.3----
2024-05-21 04:12 pmWSW 9.9 13.0----30.03- 53.1 54.3----
2024-05-21 04:06 pmWSW 9.9 13.0----30.03- 53.2 54.3----
2024-05-21 04:00 pm SW 9.9 13.0----30.03-0.07 53.2 54.3----
2024-05-21 03:54 pm SW 11.1 15.9----30.03- 53.2 54.5----
2024-05-21 03:48 pm SW 11.1 14.0----30.03- 53.2 54.5----
2024-05-21 03:42 pm SW 11.1 15.9----30.03- 53.2 54.5----
2024-05-21 03:36 pm SW 9.9 18.1----30.04- 53.2 54.1----
2024-05-21 03:30 pmSSW 12.0 21.0----30.04- 53.2 54.1----
2024-05-21 03:24 pmSSW 15.0 22.0----30.04- 53.1 54.1----
2024-05-21 03:18 pm SW 11.1 20.0----30.04- 53.1 54.3----
2024-05-21 03:12 pmSSW 18.1 22.9----30.04- 53.1 54.1----
2024-05-21 03:06 pmSSW 19.0 22.9----30.05- 52.9 54.1----
2024-05-21 03:00 pmSSW 17.1 24.1----30.05-0.07 52.9 54.1----
2024-05-21 02:54 pmSSW 15.0 20.0----30.05- 52.9 54.1----